• In Hungary
  • List of Countries
  • For 7 days
  • Water Temperature
  • Satellite Maps
  • Weather Map
  • News
  • Weather Widgets
  • user-avatar
    Login

    Hourly Weather Humpolec

    Today, 18 February, Sunday

    Time Temperature Precipitation Wind Pressure Humidity
    00:00 -4°C° 0.2 mm 2 mps 715 mmHg 94%
    01:00 -2°C° 0 mm 1 mps 715 mmHg 94%
    02:00 -2°C° 0.1 mm 1 mps 715 mmHg 94%
    03:00 -2°C° 0.1 mm 1 mps 715 mmHg 94%
    04:00 -3°C° 0.1 mm 1 mps 716 mmHg 94%
    05:00 -3°C° 0 mm 1 mps 716 mmHg 94%
    06:00 -3°C° 0 mm 1 mps 716 mmHg 94%
    07:00 -6°C° 0 mm 2 mps 717 mmHg 94%
    08:00 -5°C° 0 mm 2 mps 717 mmHg 91%
    09:00 -4°C° 0 mm 2 mps 717 mmHg 89%
    10:00 -2°C° 0 mm 2 mps 718 mmHg 86%
    11:00 -2°C° 0 mm 2 mps 718 mmHg 83%
    12:00 -1°C° 0 mm 2 mps 718 mmHg 81%
    13:00 -1°C° 0 mm 2 mps 719 mmHg 78%
    14:00 -1°C° 0 mm 2 mps 719 mmHg 79%
    15:00 -1°C° 0 mm 2 mps 718 mmHg 79%
    16:00 -1°C° 0 mm 2 mps 718 mmHg 79%
    17:00 0°C° 0 mm 1 mps 718 mmHg 81%
    18:00 -2°C° 0 mm 1 mps 718 mmHg 84%
    19:00 -3°C° 0 mm 1 mps 718 mmHg 86%
    20:00 -3°C° 0 mm 1 mps 718 mmHg 87%
    21:00 -4°C° 0 mm 1 mps 718 mmHg 87%
    22:00 -4°C° 0 mm 1 mps 718 mmHg 87%
    23:00 -4°C° 0 mm 1 mps 717 mmHg 88%

    Tomorrow, 19 February, Monday

    Time Temperature Precipitation Wind Pressure Humidity
    00:00 -4°C° 0 mm 1 mps 717 mmHg 88%
    01:00 -6°C° 0 mm 1 mps 717 mmHg 88%
    02:00 -6°C° 0 mm 1 mps 716 mmHg 88%
    03:00 -6°C° 0 mm 1 mps 716 mmHg 88%
    04:00 -6°C° 0 mm 1 mps 716 mmHg 87%
    05:00 -6°C° 0 mm 1 mps 715 mmHg 87%
    06:00 -6°C° 0 mm 1 mps 715 mmHg 87%
    07:00 -7°C° 0 mm 2 mps 715 mmHg 87%
    08:00 -6°C° 0 mm 2 mps 715 mmHg 83%
    09:00 -5°C° 0 mm 2 mps 715 mmHg 80%
    10:00 -4°C° 0 mm 2 mps 715 mmHg 76%
    11:00 -4°C° 0 mm 3 mps 714 mmHg 75%
    12:00 -2°C° 0 mm 3 mps 714 mmHg 74%
    13:00 -1°C° 0 mm 3 mps 714 mmHg 73%
    14:00 -2°C° 0 mm 3 mps 713 mmHg 75%
    15:00 -2°C° 0 mm 3 mps 713 mmHg 77%
    16:00 -2°C° 0 mm 3 mps 712 mmHg 79%
    17:00 -4°C° 0 mm 3 mps 712 mmHg 83%
    18:00 -5°C° 0 mm 3 mps 712 mmHg 87%
    19:00 -5°C° 0 mm 2 mps 712 mmHg 91%
    20:00 -5°C° 0 mm 2 mps 712 mmHg 91%
    21:00 -5°C° 0 mm 2 mps 712 mmHg 91%
    22:00 -5°C° 0 mm 2 mps 711 mmHg 91%
    23:00 -6°C° 0 mm 2 mps 711 mmHg 90%

    Day after tomorrow, 20 February, Tuesday

    Time Temperature Precipitation Wind Pressure Humidity
    00:00 -6°C° 0 mm 2 mps 711 mmHg 90%
    01:00 -6°C° 0 mm 2 mps 711 mmHg 90%
    02:00 -6°C° 0 mm 2 mps 711 mmHg 90%
    03:00 -6°C° 0 mm 2 mps 710 mmHg 89%
    04:00 -6°C° 0 mm 2 mps 710 mmHg 89%
    05:00 -6°C° 0 mm 2 mps 710 mmHg 89%
    06:00 -6°C° 0 mm 2 mps 710 mmHg 88%
    07:00 -6°C° 0 mm 2 mps 710 mmHg 87%
    08:00 -5°C° 0.1 mm 2 mps 710 mmHg 84%
    09:00 -4°C° 0.1 mm 2 mps 710 mmHg 82%
    10:00 -3°C° 0.1 mm 2 mps 711 mmHg 79%
    11:00 -3°C° 0.1 mm 2 mps 710 mmHg 78%
    12:00 -2°C° 0.1 mm 2 mps 710 mmHg 77%
    13:00 -1°C° 0.1 mm 2 mps 710 mmHg 76%
    14:00 -1°C° 0.1 mm 2 mps 710 mmHg 76%
    15:00 -1°C° 0.1 mm 2 mps 710 mmHg 76%
    16:00 -1°C° 0.1 mm 2 mps 710 mmHg 76%
    17:00 -2°C° 0 mm 2 mps 710 mmHg 78%
    18:00 -3°C° 0 mm 2 mps 710 mmHg 80%
    19:00 -3°C° 0 mm 2 mps 710 mmHg 82%
    20:00 -4°C° 0 mm 2 mps 711 mmHg 83%
    21:00 -4°C° 0 mm 2 mps 711 mmHg 84%
    22:00 -4°C° 0 mm 2 mps 711 mmHg 85%
    23:00 -5°C° 0 mm 2 mps 711 mmHg 85%

    21 February, Wednesday

    Time Temperature Precipitation Wind Pressure Humidity
    00:00 -5°C° 0 mm 2 mps 711 mmHg 85%
    01:00 -5°C° 0 mm 2 mps 711 mmHg 85%
    02:00 -5°C° 0 mm 2 mps 711 mmHg 85%
    03:00 -6°C° 0 mm 2 mps 711 mmHg 85%
    04:00 -6°C° 0 mm 2 mps 711 mmHg 85%
    05:00 -6°C° 0 mm 2 mps 712 mmHg 85%
    06:00 -6°C° 0 mm 2 mps 712 mmHg 85%
    07:00 -6°C° 0 mm 2 mps 712 mmHg 85%
    08:00 -5°C° 0 mm 2 mps 712 mmHg 82%
    09:00 -4°C° 0 mm 2 mps 712 mmHg 78%
    10:00 -4°C° 0 mm 3 mps 713 mmHg 75%
    11:00 -4°C° 0 mm 3 mps 712 mmHg 72%
    12:00 -3°C° 0 mm 4 mps 712 mmHg 70%
    13:00 -2°C° 0 mm 4 mps 712 mmHg 67%
    14:00 -2°C° 0 mm 4 mps 712 mmHg 67%
    15:00 -2°C° 0 mm 4 mps 712 mmHg 68%
    16:00 -3°C° 0 mm 4 mps 712 mmHg 68%
    17:00 -3°C° 0 mm 4 mps 712 mmHg 71%
    18:00 -4°C° 0 mm 4 mps 712 mmHg 74%
    19:00 -5°C° 0 mm 4 mps 712 mmHg 77%
    20:00 -7°C° 0 mm 4 mps 712 mmHg 78%
    21:00 -7°C° 0 mm 4 mps 712 mmHg 79%
    22:00 -7°C° 0 mm 4 mps 712 mmHg 79%
    23:00 -7°C° 0 mm 4 mps 712 mmHg 80%

    22 February, Thursday

    Time Temperature Precipitation Wind Pressure Humidity
    00:00 -8°C° 0 mm 4 mps 712 mmHg 81%
    01:00 -8°C° 0 mm 4 mps 711 mmHg 82%
    02:00 -8°C° 0 mm 4 mps 711 mmHg 82%
    03:00 -8°C° 0 mm 4 mps 711 mmHg 83%
    04:00 -8°C° 0 mm 4 mps 711 mmHg 83%
    05:00 -8°C° 0 mm 4 mps 711 mmHg 82%
    06:00 -8°C° 0 mm 4 mps 711 mmHg 82%
    07:00 -8°C° 0 mm 5 mps 711 mmHg 81%
    08:00 -7°C° 0 mm 5 mps 711 mmHg 78%
    09:00 -8°C° 0 mm 6 mps 711 mmHg 76%
    10:00 -6°C° 0 mm 6 mps 711 mmHg 73%
    11:00 -5°C° 0.1 mm 6 mps 711 mmHg 72%
    12:00 -5°C° 0.1 mm 6 mps 711 mmHg 71%
    13:00 -4°C° 0.1 mm 6 mps 711 mmHg 70%
    14:00 -4°C° 0.1 mm 6 mps 710 mmHg 71%
    15:00 -5°C° 0.1 mm 6 mps 710 mmHg 72%
    16:00 -5°C° 0.1 mm 6 mps 710 mmHg 73%
    17:00 -5°C° 0.1 mm 5 mps 710 mmHg 76%
    18:00 -6°C° 0.1 mm 5 mps 710 mmHg 78%
    19:00 -7°C° 0.1 mm 5 mps 710 mmHg 81%
    20:00 -7°C° 0.2 mm 5 mps 710 mmHg 82%
    21:00 -7°C° 0.2 mm 4 mps 710 mmHg 83%
    22:00 -7°C° 0.2 mm 4 mps 710 mmHg 84%
    23:00 -7°C° 0.2 mm 4 mps 710 mmHg 85%

    23 February, Friday

    Time Temperature Precipitation Wind Pressure Humidity
    00:00 -7°C° 0.2 mm 4 mps 710 mmHg 85%
    01:00 -7°C° 0.2 mm 4 mps 710 mmHg 86%
    02:00 -7°C° 0.1 mm 4 mps 710 mmHg 86%
    03:00 -8°C° 0.1 mm 4 mps 709 mmHg 86%
    04:00 -8°C° 0.1 mm 4 mps 709 mmHg 86%
    05:00 -8°C° 0.1 mm 4 mps 709 mmHg 85%
    06:00 -8°C° 0.1 mm 4 mps 709 mmHg 84%
    07:00 -8°C° 0.1 mm 4 mps 710 mmHg 84%
    08:00 -8°C° 0 mm 4 mps 710 mmHg 81%
    09:00 -8°C° 0 mm 5 mps 710 mmHg 79%
    10:00 -7°C° 0 mm 5 mps 710 mmHg 76%
    11:00 -7°C° 0 mm 5 mps 710 mmHg 74%
    12:00 -6°C° 0 mm 5 mps 710 mmHg 71%
    13:00 -6°C° 0 mm 5 mps 710 mmHg 69%
    14:00 -6°C° 0 mm 5 mps 710 mmHg 67%
    15:00 -7°C° 0 mm 5 mps 710 mmHg 66%
    16:00 -7°C° 0 mm 5 mps 710 mmHg 65%
    17:00 -8°C° 0 mm 5 mps 710 mmHg 65%
    18:00 -10°C° 0 mm 5 mps 710 mmHg 66%
    19:00 -11°C° 0 mm 4 mps 710 mmHg 67%
    20:00 -11°C° 0 mm 4 mps 711 mmHg 66%
    21:00 -11°C° 0 mm 4 mps 711 mmHg 65%
    22:00 -12°C° 0 mm 4 mps 711 mmHg 64%
    23:00 -12°C° 0 mm 4 mps 711 mmHg 64%
    Show more